Location: Ferintosh
(52.7647°N, 112.9692°W)
Time: 22:37:01
(UTC+00:00)

Vanguard 1 Rocket - Pass Details

Date: 26 May 2024
Orbit: 649 x 4221 km, 34.3° (Epoch: 13 June)

Event Time Altitude Azimuth Distance (km) Brightness Sun altitude
Rises 13:42:06 0° 201° (SSW) 8,447 12.0 18.7°
Reaches altitude 10° 13:50:13 10° 189° (S) 7,363 11.9 19.9°
Maximum altitude 14:06:26 23° 148° (SSE) 5,584 11.9 22.4°
Drops below altitude 10° 14:18:44 10° 105° (ESE) 5,561 12.9 24.2°
Sets 14:23:30 0° 92° (E) 6,042 13.0 24.9°
